Previsão horária em Aalten

Hoje, 22 Outubro, Quinta-feira

Tempo Temperatura Precipitação Vento Pressão Humidade
00:00 +15°C° 0 mm 5 m/s 753 mmHg 85%
01:00 +14°C° 0 mm 6 m/s 753 mmHg 87%
02:00 +14°C° 0 mm 6 m/s 753 mmHg 89%
03:00 +14°C° 0 mm 6 m/s 753 mmHg 90%
04:00 +13°C° 0 mm 6 m/s 754 mmHg 90%
05:00 +13°C° 0 mm 5 m/s 754 mmHg 90%
06:00 +12°C° 0 mm 5 m/s 754 mmHg 90%
07:00 +13°C° 0 mm 6 m/s 755 mmHg 86%
08:00 +14°C° 0 mm 6 m/s 755 mmHg 82%
09:00 +15°C° 0 mm 6 m/s 755 mmHg 77%
10:00 +16°C° 0 mm 6 m/s 755 mmHg 76%
11:00 +17°C° 0 mm 6 m/s 755 mmHg 75%
12:00 +17°C° 0 mm 6 m/s 755 mmHg 74%
13:00 +17°C° 0.3 mm 5 m/s 755 mmHg 77%
14:00 +16°C° 0.3 mm 5 m/s 755 mmHg 80%
15:00 +17°C° 0.3 mm 4 m/s 755 mmHg 83%
16:00 +15°C° 0.1 mm 4 m/s 755 mmHg 85%
17:00 +16°C° 0.1 mm 3 m/s 755 mmHg 88%
18:00 +14°C° 0.1 mm 3 m/s 755 mmHg 91%
19:00 +13°C° 0.1 mm 3 m/s 755 mmHg 92%
20:00 +13°C° 0.1 mm 3 m/s 755 mmHg 93%
21:00 +13°C° 0.1 mm 2 m/s 755 mmHg 94%
22:00 +13°C° 0 mm 2 m/s 756 mmHg 95%
23:00 +12°C° 0 mm 2 m/s 756 mmHg 95%

Amanhã, 23 Outubro, Sexta-feira

Tempo Temperatura Precipitação Vento Pressão Humidade
00:00 +12°C° 0 mm 2 m/s 756 mmHg 95%
01:00 +12°C° 0 mm 2 m/s 756 mmHg 95%
02:00 +12°C° 0 mm 2 m/s 755 mmHg 95%
03:00 +10°C° 0 mm 2 m/s 755 mmHg 96%
04:00 +10°C° 0 mm 2 m/s 755 mmHg 96%
05:00 +10°C° 0 mm 2 m/s 755 mmHg 96%
06:00 +10°C° 0 mm 2 m/s 755 mmHg 97%
07:00 +12°C° 0 mm 2 m/s 755 mmHg 94%
08:00 +13°C° 0 mm 2 m/s 755 mmHg 92%
09:00 +13°C° 0 mm 3 m/s 755 mmHg 90%
10:00 +14°C° 0 mm 3 m/s 755 mmHg 87%
11:00 +16°C° 0 mm 3 m/s 754 mmHg 83%
12:00 +17°C° 0 mm 3 m/s 754 mmHg 79%
13:00 +17°C° 0 mm 3 m/s 754 mmHg 80%
14:00 +17°C° 0 mm 3 m/s 754 mmHg 80%
15:00 +17°C° 0 mm 3 m/s 754 mmHg 81%
16:00 +14°C° 0.1 mm 3 m/s 754 mmHg 84%
17:00 +13°C° 0.1 mm 3 m/s 754 mmHg 88%
18:00 +12°C° 0.1 mm 3 m/s 754 mmHg 91%
19:00 +12°C° 0 mm 3 m/s 755 mmHg 89%
20:00 +12°C° 0 mm 4 m/s 755 mmHg 88%
21:00 +12°C° 0 mm 4 m/s 756 mmHg 87%
22:00 +10°C° 0 mm 5 m/s 756 mmHg 88%
23:00 +10°C° 0 mm 5 m/s 756 mmHg 89%

Depois de amanhã, 24 Outubro, Sábado

Tempo Temperatura Precipitação Vento Pressão Humidade
00:00 +9°C° 0 mm 5 m/s 756 mmHg 90%
01:00 +9°C° 0 mm 5 m/s 756 mmHg 91%
02:00 +9°C° 0 mm 5 m/s 756 mmHg 91%
03:00 +8°C° 0 mm 4 m/s 756 mmHg 92%
04:00 +8°C° 0 mm 4 m/s 757 mmHg 92%
05:00 +10°C° 0 mm 4 m/s 757 mmHg 92%
06:00 +10°C° 0 mm 4 m/s 757 mmHg 93%
07:00 +9°C° 0 mm 5 m/s 757 mmHg 90%
08:00 +10°C° 0 mm 5 m/s 757 mmHg 87%
09:00 +10°C° 0 mm 5 m/s 757 mmHg 85%
10:00 +12°C° 0 mm 5 m/s 757 mmHg 83%
11:00 +11°C° 0 mm 6 m/s 757 mmHg 82%
12:00 +13°C° 0 mm 6 m/s 757 mmHg 81%
13:00 +13°C° 0 mm 6 m/s 756 mmHg 80%
14:00 +13°C° 0 mm 6 m/s 756 mmHg 79%
15:00 +14°C° 0 mm 6 m/s 756 mmHg 78%
16:00 +13°C° 0 mm 6 m/s 756 mmHg 79%
17:00 +13°C° 0 mm 6 m/s 755 mmHg 80%
18:00 +13°C° 0 mm 6 m/s 755 mmHg 80%
19:00 +13°C° 0 mm 6 m/s 755 mmHg 79%
20:00 +12°C° 0 mm 7 m/s 755 mmHg 78%
21:00 +14°C° 0 mm 7 m/s 755 mmHg 77%
22:00 +12°C° 0 mm 7 m/s 755 mmHg 78%
23:00 +12°C° 0 mm 7 m/s 754 mmHg 79%

, 25 Outubro, Domingo

Tempo Temperatura Precipitação Vento Pressão Humidade
00:00 +12°C° 0 mm 7 m/s 754 mmHg 80%
01:00 +12°C° 0 mm 7 m/s 754 mmHg 80%
02:00 +12°C° 0 mm 7 m/s 753 mmHg 79%
03:00 +12°C° 0 mm 7 m/s 753 mmHg 78%
04:00 +11°C° 0 mm 7 m/s 752 mmHg 77%
05:00 +11°C° 0 mm 7 m/s 752 mmHg 75%
06:00 +11°C° 0 mm 7 m/s 752 mmHg 74%
07:00 +12°C° 0 mm 7 m/s 752 mmHg 72%
08:00 +12°C° 0 mm 7 m/s 752 mmHg 70%
09:00 +14°C° 0 mm 7 m/s 752 mmHg 68%
10:00 +14°C° 0 mm 6 m/s 751 mmHg 68%
11:00 +14°C° 0 mm 6 m/s 751 mmHg 68%
12:00 +14°C° 0 mm 5 m/s 751 mmHg 69%
13:00 +13°C° 0.1 mm 5 m/s 751 mmHg 73%
14:00 +12°C° 0.1 mm 4 m/s 751 mmHg 78%
15:00 +12°C° 0.1 mm 4 m/s 751 mmHg 83%
16:00 +12°C° 0.3 mm 4 m/s 751 mmHg 85%
17:00 +11°C° 0.3 mm 4 m/s 751 mmHg 86%
18:00 +11°C° 0.3 mm 4 m/s 751 mmHg 88%
19:00 +11°C° 0 mm 4 m/s 751 mmHg 89%
20:00 +11°C° 0 mm 3 m/s 751 mmHg 89%
21:00 +11°C° 0 mm 3 m/s 751 mmHg 90%
22:00 +10°C° 0 mm 3 m/s 751 mmHg 91%
23:00 +10°C° 0 mm 2 m/s 751 mmHg 91%

25 Outubro, Domingo

Tempo Temperatura Precipitação Vento Pressão Humidade
00:00 +12°C° 0 mm 7 m/s 754 mmHg 80%
01:00 +12°C° 0 mm 7 m/s 754 mmHg 80%
02:00 +12°C° 0 mm 7 m/s 753 mmHg 79%
03:00 +12°C° 0 mm 7 m/s 753 mmHg 78%
04:00 +11°C° 0 mm 7 m/s 752 mmHg 77%
05:00 +11°C° 0 mm 7 m/s 752 mmHg 75%
06:00 +11°C° 0 mm 7 m/s 752 mmHg 74%
07:00 +12°C° 0 mm 7 m/s 752 mmHg 72%
08:00 +12°C° 0 mm 7 m/s 752 mmHg 70%
09:00 +14°C° 0 mm 7 m/s 752 mmHg 68%
10:00 +14°C° 0 mm 6 m/s 751 mmHg 68%
11:00 +14°C° 0 mm 6 m/s 751 mmHg 68%
12:00 +14°C° 0 mm 5 m/s 751 mmHg 69%
13:00 +13°C° 0.1 mm 5 m/s 751 mmHg 73%
14:00 +12°C° 0.1 mm 4 m/s 751 mmHg 78%
15:00 +12°C° 0.1 mm 4 m/s 751 mmHg 83%
16:00 +12°C° 0.3 mm 4 m/s 751 mmHg 85%
17:00 +11°C° 0.3 mm 4 m/s 751 mmHg 86%
18:00 +11°C° 0.3 mm 4 m/s 751 mmHg 88%
19:00 +11°C° 0 mm 4 m/s 751 mmHg 89%
20:00 +11°C° 0 mm 3 m/s 751 mmHg 89%
21:00 +11°C° 0 mm 3 m/s 751 mmHg 90%
22:00 +10°C° 0 mm 3 m/s 751 mmHg 91%
23:00 +10°C° 0 mm 2 m/s 751 mmHg 91%

26 Outubro, Segunda-feira

Tempo Temperatura Precipitação Vento Pressão Humidade
00:00 +11°C° 0 mm 1 m/s 751 mmHg 92%
01:00 +11°C° 0.3 mm 1 m/s 751 mmHg 93%
02:00 +11°C° 0.3 mm 1 m/s 751 mmHg 94%
03:00 +9°C° 0.3 mm 2 m/s 751 mmHg 95%
04:00 +10°C° 0.6 mm 1 m/s 751 mmHg 95%
05:00 +10°C° 0.6 mm 1 m/s 751 mmHg 95%
06:00 +10°C° 0.6 mm 1 m/s 751 mmHg 95%
07:00 +10°C° 0.3 mm 1 m/s 751 mmHg 95%
08:00 +10°C° 0.3 mm 1 m/s 751 mmHg 94%
09:00 +10°C° 0.3 mm 1 m/s 751 mmHg 94%
10:00 +11°C° 0.2 mm 1 m/s 751 mmHg 92%
11:00 +11°C° 0.2 mm 1 m/s 751 mmHg 91%
12:00 +11°C° 0.2 mm 1 m/s 751 mmHg 89%
13:00 +11°C° 0.1 mm 1 m/s 751 mmHg 88%
14:00 +11°C° 0.1 mm 1 m/s 751 mmHg 87%
15:00 +12°C° 0.1 mm 1 m/s 751 mmHg 86%
16:00 +11°C° 0 mm 1 m/s 751 mmHg 88%
17:00 +10°C° 0 mm 1 m/s 752 mmHg 90%
18:00 +8°C° 0 mm 0 m/s 752 mmHg 93%
19:00 +9°C° 0 mm 1 m/s 752 mmHg 93%
20:00 +8°C° 0 mm 1 m/s 753 mmHg 93%
21:00 +8°C° 0 mm 1 m/s 753 mmHg 93%
22:00 +8°C° 0 mm 1 m/s 753 mmHg 93%
23:00 +8°C° 0 mm 1 m/s 753 mmHg 93%

27 Outubro, Terça-feira

Tempo Temperatura Precipitação Vento Pressão Humidade
00:00 +7°C° 0 mm 1 m/s 753 mmHg 93%
01:00 +7°C° 0 mm 1 m/s 753 mmHg 93%
02:00 +7°C° 0 mm 1 m/s 753 mmHg 94%
03:00 +7°C° 0 mm 1 m/s 753 mmHg 94%
04:00 +6°C° 0 mm 1 m/s 754 mmHg 94%
05:00 +5°C° 0 mm 2 m/s 754 mmHg 94%
06:00 +5°C° 0 mm 2 m/s 754 mmHg 95%
07:00 +6°C° 0 mm 2 m/s 755 mmHg 92%
08:00 +7°C° 0 mm 3 m/s 755 mmHg 90%
09:00 +8°C° 0 mm 3 m/s 755 mmHg 88%
10:00 +9°C° 0 mm 3 m/s 755 mmHg 85%
11:00 +11°C° 0 mm 3 m/s 755 mmHg 82%
12:00 +12°C° 0 mm 3 m/s 755 mmHg 79%
13:00 +11°C° 0 mm 3 m/s 755 mmHg 80%
14:00 +11°C° 0 mm 3 m/s 755 mmHg 80%
15:00 +12°C° 0 mm 2 m/s 755 mmHg 80%
16:00 +10°C° 0 mm 3 m/s 755 mmHg 83%
17:00 +9°C° 0 mm 3 m/s 755 mmHg 86%
18:00 +8°C° 0 mm 3 m/s 755 mmHg 89%
19:00 +8°C° 0 mm 3 m/s 755 mmHg 88%
20:00 +8°C° 0 mm 3 m/s 755 mmHg 87%
21:00 +7°C° 0 mm 4 m/s 755 mmHg 86%
22:00 +7°C° 0 mm 4 m/s 755 mmHg 84%
23:00 +7°C° 0 mm 5 m/s 755 mmHg 81%
Mostrar mais